This is the latest recevied weather packets stored in our database for station/object KC5TXI. If no packets are shown the sender has not sent any weather packets the latest 10 day(s).
| Time | Temp. | Humidity | Pressure | Rain* | Wind** | Luminosity | Snow |
|---|---|---|---|---|---|---|---|
| 1777731427 | 16.67° C | 76% | 1023.8 hPa | 0 mm | - | 324 W/m² | - |
| 1777731125 | 16.67° C | 79% | 1023.6 hPa | 0 mm | - | 159 W/m² | - |
| 1777730823 | 15.56° C | 81% | 1023.5 hPa | 0 mm | - | 142 W/m² | - |
| 1777730520 | 15° C | 86% | 1023.3 hPa | 0 mm | - | 140 W/m² | - |
| 1777730215 | 14.44° C | 92% | 1023.5 hPa | 0 mm | - | 155 W/m² | - |
| 1777729913 | 13.89° C | 96% | 1023.4 hPa | 0 mm | - | 55 W/m² | - |
| 1777729609 | 13.33° C | 98% | 1023.3 hPa | 0 mm | - | 54 W/m² | - |
| 1777729306 | 12.78° C | 99% | 1023.6 hPa | 0 mm | - | 118 W/m² | - |
| 1777729003 | 12.78° C | 99% | 1023.4 hPa | 0 mm | - | 52 W/m² | - |
| 1777728699 | 12.78° C | 99% | 1023.2 hPa | 0 mm | - | 67 W/m² | - |
| 1777728396 | 12.22° C | 99% | 1023.1 hPa | 0 mm | - | 110 W/m² | - |
| 1777728093 | 11.67° C | 99% | 1023.2 hPa | 0 mm | - | 90 W/m² | - |
| 1777727790 | 11.67° C | 99% | 1023.1 hPa | 0 mm | - | 69 W/m² | - |
| 1777727487 | 11.67° C | 99% | 1023 hPa | 0 mm | - | 42 W/m² | - |
| 1777727185 | 11.11° C | 99% | 1023 hPa | 0 mm | - | 39 W/m² | - |
| 1777726882 | 11.11° C | 99% | 1023.2 hPa | 0 mm | - | 36 W/m² | - |
| 1777726578 | 10.56° C | 99% | 1022.9 hPa | 0 mm | - | 34 W/m² | - |
| 1777725368 | 9.44° C | 99% | 1022.7 hPa | 0 mm | - | 27 W/m² | - |
| 1777725064 | 8.89° C | 99% | 1022.8 hPa | 0 mm | - | 25 W/m² | - |
| 1777724761 | 8.33° C | 99% | 1022.7 hPa | 0 mm | - | 23 W/m² | - |
| 1777724458 | 8.33° C | 99% | 1022.8 hPa | 0 mm | - | 21 W/m² | - |
| 1777724155 | 8.33° C | 99% | 1022.8 hPa | 0 mm | - | 18 W/m² | - |
| 1777723852 | 8.33° C | 99% | 1022.4 hPa | 0 mm | - | 16 W/m² | - |
| 1777723548 | 8.33° C | 99% | 1022.2 hPa | 0 mm | - | 12 W/m² | - |
| 1777723246 | 7.78° C | 99% | 1022.3 hPa | 0 mm | - | 10 W/m² | - |
* Rain latest hour (hover to see other rain measurements)
** Current wind speed in m/s (hover to see current wind gust speed)